Location: Batang Balui
(2.7000°N, 113.7833°E)
Time: 00:30:27
(UTC+00:00)

HJ-1C - Pass Details

Date: 03 December 2021
Orbit: 419 x 431 km, 97.1° (Epoch: 27 January)

Event Time Altitude Azimuth Distance (km) Brightness Sun altitude
Rises 11:32:34 0° 164° (SSE) 2,398 7.2 -19.0°
Reaches altitude 10° 11:34:35 10° 161° (SSE) 1,532 6.1 -19.5°
Enters shadow 11:36:29 31° 149° (SSE) 779 4.5 -19.9°
